Flag for Germany Weather past 2 weeks in Salzgitter, Lower Saxony, Germany

Now
37 °F

Overcast.


Feels Like: 28 °F
Forecast: 31 / 37 °F
Wind: 16 mph from West

Location: Braunschweig

Current Time: Jan 29, 2015 at 1:32:42 AM

Latest Report: Jan 28, 2015 at 10:20 PM


Visibility: N/A

Pressure: 29.30 "Hg

Humidity: 93%

Dew point: 36 °F

Location of SalzgitterLocation

Historic Weather in Salzgitter — Graph

°F

Salzgitter temperature yesterday

Maximum temperature yesterday: 41 °F (at 11:50 AM)
Minimum temperature yesterday: 37 °F (at 6:20 AM)
Average temperature yesterday: 40 °F

Past Weeks' High & Low Weather Summary

 TemperatureHumidityPressure
High52 °F (Jan 15, 6:50 PM)100% (Jan 17, 8:50 AM)30.30 "Hg (Jan 17, 8:50 AM)
Low23 °F (Jan 21, 6:50 AM)57% (Jan 16, 12:50 PM)29.27 "Hg (Jan 28, 8:20 PM)
Average36 °F87%29.93 "Hg
* Reported Jan 14 4:20 AM — Jan 28 10:20 PM, Salzgitter, Weather by CustomWeather, © 2014

Note: Actual official high and low records may vary slightly from our data, if they occured in-between our weather recording intervals... More about our weather records

Advertising

Salzgitter weather history for previous 24 hours

 ConditionsComfort  
Time TempWeatherWind HumidityBarometerVisibility
10:20 PM
Jan 28
37 °FOvercast.16 mph93%29.30 "HgN/A
9:50 PM37 °FMostly cloudy.17 mph93%29.30 "HgN/A
9:20 PM37 °FRain. Overcast.21 mph100%29.30 "HgN/A
8:50 PM39 °FMostly cloudy.25 mph87%29.27 "HgN/A
8:20 PM41 °FMostly cloudy.23 mph81%29.27 "HgN/A
7:50 PM41 °FRain. Mostly cloudy.22 mph81%29.30 "HgN/A
7:20 PM39 °FRain. Mostly cloudy.22 mph87%29.33 "HgN/A
6:50 PM39 °FRain. Mostly cloudy.23 mph93%29.33 "Hg6 mi
6:20 PM41 °FMostly cloudy.24 mph81%29.36 "HgN/A
5:50 PM41 °FPassing clouds.26 mph76%29.39 "HgN/A
5:20 PM41 °FOvercast.25 mph76%29.42 "HgN/A
4:50 PM41 °FPartly sunny.18 mph76%29.47 "HgN/A
4:20 PM41 °FMostly cloudy.21 mph76%29.47 "HgN/A
3:50 PM41 °FMostly cloudy.23 mph76%29.50 "HgN/A
3:20 PM41 °FPartly sunny.24 mph76%29.56 "HgN/A
2:50 PM41 °FPartly sunny.20 mph76%29.59 "HgN/A
2:20 PM41 °FPartly sunny.21 mph76%29.59 "HgN/A
1:50 PM41 °FBroken clouds.21 mph81%29.62 "HgN/A
1:20 PM41 °FBroken clouds.17 mph76%29.68 "HgN/A
12:50 PM41 °FBroken clouds.16 mph81%29.68 "HgN/A
12:20 PM41 °FBroken clouds.16 mph76%29.71 "HgN/A
11:50 AM41 °FScattered clouds.17 mph76%29.74 "HgN/A
10:50 AM39 °FPartly sunny.16 mph81%29.83 "HgN/A
10:20 AM39 °FScattered clouds.16 mph81%29.83 "HgN/A
9:50 AM39 °FBroken clouds.15 mph81%29.86 "HgN/A
9:20 AM39 °FPartly sunny.13 mph87%29.89 "HgN/A
8:50 AM39 °FCloudy.14 mph87%29.89 "HgN/A
8:20 AM39 °FMostly cloudy.13 mph87%29.89 "HgN/A
7:50 AM37 °FMostly cloudy.9 mph93%29.92 "HgN/A
7:20 AM37 °FPartly cloudy.9 mph93%29.92 "HgN/A
6:50 AM37 °FClear.10 mph100%29.95 "Hg10 mi
6:20 AM37 °FPassing clouds.9 mph100%29.95 "HgN/A
Weather by CustomWeather, © 2014

See weather overviewHow to use our weather pages